ATLAS 5 CENTAUR DEB

基本信息
目录编号:
52943
目录名称:
ATLAS 5 CENTAUR DEB
国际标识:
2022-073D
轨道中心:
EARTH
物体状态:
在轨
发射日期:
2022-07-01 UTC
轨道信息
数据来源: 国际轨道数据
星历时间: 2026-07-13T00:02:51+0800
半长轴: 42619.892km
偏心率: 0.0007706
轨道倾角: 3.828°
近地点辐角: 49.915°
升交点赤经: 78.532°
平近点角: 309.896°
近地点: 36208.912km
远地点: 36274.598km
周期: 1459.413分钟
每日圈数: 0.986698
详细信息
发射场:
AFETR
轨道高度:
HEO
数据来源:
AOE Integration Group
参考系:
TEME
时间系统:
UTC
历元类型:
SGP4
2D轨道图
3D轨道图
轨道高度分析图
轨道倾角分析图
轨道综合分析图
查看轨道综合分析图